[[{"header":{"parameterUnit":"m.s-1","parameterCategory":1,"la1":30.2991,"la2":30.254,"lo1":-89.0895,"lo2":-89.0444,"dy":0.0017,"dx":0.0017,"nx":28,"ny":28,"refTime":"2024-04-23T03:00:00:Z","depth":0,"parameterNumber":2,"parameterNumberName":"U-component_of_WINDS"},"data":[0,0,0,0,0,0,0,0,0,0,0,0,0,0,0,0,0,0,0,0,0,0,0,0,0,0,0,0,0,0,0,0,0,0,0,0,0,0,0,0,0,0,0,0,0,0,0,0,0,0,0,0,0,0,0,0,0,0,-0.224,-0.2239,0,-0.2208,-0.2208,-0.2207,-0.2168,-0.2168,-0.2167,-0.2167,-0.2136,-0.2136,-0.2135,0,0,0,0,0,0,0,0,0,0,0,0,0,-0.2268,-0.2268,-0.224,-0.2239,-0.2239,-0.2208,-0.2208,-0.2207,-0.2168,-0.2168,-0.2167,-0.2166,-0.2136,-0.2136,-0.2135,0,0,0,0,0,0,0,0,0,0,0,0,0,-0.2248,-0.2267,-0.224,-0.2216,-0.2213,-0.2208,-0.2208,-0.2207,-0.2169,-0.2168,-0.2167,-0.2166,-0.2136,-0.2136,-0.2135,-0.2152,0,0,-0.2134,-0.2134,0,0,0,0,0,0,0,0,-0.2249,-0.2247,-0.222,-0.2217,-0.2215,-0.2191,-0.2207,-0.2189,-0.2169,-0.2186,-0.2166,-0.2165,-0.2155,-0.2153,-0.2149,-0.2151,-0.2149,-0.2134,-0.2134,-0.2134,-0.2134,0,0,0,0,0,0,0,-0.2251,-0.2248,-0.2227,-0.2219,-0.2216,-0.2207,-0.2203,-0.2203,-0.2176,-0.2184,-0.2181,-0.2178,-0.2154,-0.215,-0.2148,-0.2149,-0.2134,-0.2134,-0.2134,-0.2134,-0.2164,-0.2164,0,0,0,0,0,0,-0.2255,-0.225,-0.2228,-0.2226,-0.223,-0.2207,-0.2203,-0.22,-0.2176,-0.2171,-0.2179,-0.2176,-0.2151,-0.2149,-0.2147,-0.2166,-0.2134,-0.2134,-0.2133,-0.2163,-0.2164,-0.2165,0,0,0,0,0,0,-0.2256,-0.2254,-0.2229,-0.2237,-0.2233,-0.2208,-0.2204,-0.22,-0.2196,-0.2172,-0.2167,-0.218,-0.215,-0.2148,-0.2151,-0.2165,-0.2133,-0.2133,-0.2161,-0.2163,-0.2164,-0.2204,0,0,0,0,0,0,-0.2257,-0.2254,-0.226,-0.2238,-0.2233,-0.2234,-0.2205,-0.22,-0.2195,-0.2191,-0.2172,-0.2167,-0.2149,-0.2152,-0.2151,-0.2164,-0.2133,-0.216,-0.2162,-0.2164,-0.2201,-0.2207,-0.2211,0,0,0,0,0,-0.2258,-0.2272,-0.226,-0.2258,-0.2239,-0.2235,-0.2232,-0.221,-0.2196,-0.2202,-0.2187,-0.2168,-0.2163,-0.2153,-0.2151,-0.2164,-0.2159,-0.2161,-0.2164,-0.2199,-0.2206,-0.2211,0,0,0,0,0,0,-0.2298,-0.2269,-0.2255,-0.2263,-0.2251,-0.2228,-0.2235,-0.2218,-0.2211,-0.2208,-0.2181,-0.2177,-0.2184,-0.2174,-0.2163,-0.2179,-0.2158,-0.216,-0.2186,-0.2192,-0.2197,-0.22,-0.2133,0,0,0,0,0,-0.2307,-0.2305,-0.228,-0.2289,-0.2284,-0.226,-0.2257,-0.2242,-0.2229,-0.2224,-0.2209,-0.2198,-0.2194,-0.2192,-0.2187,-0.2199,-0.2195,-0.2207,-0.2212,-0.2216,-0.2219,-0.2226,-0.2232,-0.2172,-0.2172,-0.2172,0,0,-0.2327,-0.2311,-0.2311,-0.2297,-0.2286,-0.2285,-0.2257,-0.2257,-0.2256,-0.2224,-0.2227,-0.2216,-0.2202,-0.221,-0.2213,-0.2202,-0.2234,-0.2219,-0.2223,-0.2223,-0.2229,-0.2235,-0.224,-0.2174,-0.2173,-0.2173,0,0,-0.2363,-0.235,-0.2356,-0.2346,-0.233,-0.2314,-0.2316,-0.2295,-0.2287,-0.2289,-0.2265,-0.2264,-0.2258,-0.2249,-0.2244,-0.2277,-0.226,-0.2276,-0.2302,-0.2309,-0.2314,-0.2318,-0.2331,-0.2336,-0.2278,-0.2278,-0.2278,0,-0.2389,-0.2386,-0.2362,-0.2364,-0.2358,-0.2329,-0.2336,-0.2328,-0.2311,-0.2309,-0.2296,-0.2288,-0.2276,-0.2283,-0.2291,-0.2287,-0.2289,-0.2279,-0.2315,-0.2319,-0.2322,-0.2334,-0.2339,-0.228,-0.228,-0.228,-0.228,0,-0.2421,-0.2419,-0.2427,-0.2411,-0.2407,-0.2411,-0.2388,-0.2387,-0.2371,-0.2357,-0.236,-0.2345,-0.2337,-0.2337,-0.2322,-0.2342,-0.2336,-0.232,-0.2298,-0.233,-0.2342,-0.2346,-0.2283,-0.2283,-0.2282,-0.2281,0,0,-0.2481,-0.2452,-0.2456,-0.2449,-0.2429,-0.2428,-0.2431,-0.2423,-0.2423,-0.2412,-0.2416,-0.2411,-0.2396,-0.239,-0.2373,-0.2379,-0.2408,-0.2362,-0.2362,-0.2373,-0.2431,-0.2445,-0.245,-0.2396,-0.2397,-0.2398,-0.2433,0,-0.2515,-0.2519,-0.2497,-0.2507,-0.2506,-0.2478,-0.2481,-0.247,-0.2457,-0.2455,-0.244,-0.2438,-0.2417,-0.2414,-0.2418,-0.2404,-0.242,-0.2401,-0.24,-0.24,-0.2406,-0.2456,-0.247,-0.2504,-0.2437,-0.2437,-0.2438,0,-0.2554,-0.2546,-0.2556,-0.2537,-0.2535,-0.2539,-0.253,-0.2527,-0.2515,-0.2505,-0.2498,-0.2479,-0.2482,-0.2461,-0.2465,-0.2453,-0.2451,-0.2444,-0.2445,-0.2445,-0.2422,-0.2459,-0.2514,-0.252,-0.2444,-0.2444,-0.2443,0,-0.26,-0.2591,-0.2596,-0.259,-0.2567,-0.2571,-0.2561,-0.2547,-0.2544,-0.2536,-0.2534,-0.2527,-0.2523,-0.2519,-0.2499,-0.2485,-0.2506,-0.2483,-0.2499,-0.25,-0.2506,-0.2506,-0.2563,-0.2503,-0.2502,-0.2502,-0.2502,0,-0.264,-0.2648,-0.2616,-0.2619,-0.2627,-0.2602,-0.2611,-0.2599,-0.2587,-0.2588,-0.2563,-0.2565,-0.2538,-0.2537,-0.2521,-0.2528,-0.2526,-0.2519,-0.2515,-0.2522,-0.2523,-0.2522,-0.252,-0.2504,-0.2503,-0.2503,-0.2503,0,-0.2692,-0.2671,-0.2675,-0.2653,-0.2648,-0.2655,-0.2636,-0.2639,-0.2624,-0.2626,-0.2625,-0.2602,-0.2599,-0.2579,-0.2572,-0.2561,-0.2575,-0.2565,-0.2579,-0.2577,-0.2595,-0.2594,-0.2654,-0.2661,-0.2595,-0.2596,-0.2596,0,-0.2721,-0.2726,-0.2704,-0.2703,-0.2695,-0.2693,-0.2689,-0.2665,-0.2662,-0.2648,-0.2653,-0.2648,-0.2644,-0.2641,-0.2624,-0.2619,-0.2611,-0.2632,-0.261,-0.2617,-0.2613,-0.2613,-0.2615,-0.2637,-0.2638,-0.2639,-0.2639,0,-0.2773,-0.2762,-0.2758,-0.275,-0.2747,-0.2739,-0.2731,-0.2731,-0.2704,-0.2703,-0.27,-0.2696,-0.2689,-0.2685,-0.2677,-0.2668,-0.265,-0.2646,-0.265,-0.2658,-0.2667,-0.2664,-0.2594,-0.2645,-0.2645,-0.2644,-0.2644,-0.2644,-0.2815,-0.2819,-0.2805,-0.2801,-0.2791,-0.2784,-0.2786,-0.2771,-0.2768,-0.276,-0.2746,-0.2745,-0.2733,-0.272,-0.2712,-0.2712,-0.2701,-0.2706,-0.2708,-0.271,-0.2715,-0.2665,-0.271,-0.271,-0.271,-0.271,-0.271,0,-0.2868,-0.2857,-0.2854,-0.2842,-0.284,-0.2821,-0.2811,-0.281,-0.281,-0.2799,-0.2795,-0.2792,-0.2789,-0.2772,-0.2766,-0.277,-0.2761,-0.2769,-0.277,-0.2768,-0.2724,-0.2722,-0.2776,-0.2776,-0.2776,-0.2776,-0.2776,-0.2776,-0.2896,-0.2901,-0.2889,-0.289,-0.2879,-0.2878,-0.2874,-0.2868,-0.2859,-0.2857,-0.2854,-0.2842,-0.2829,-0.2823,-0.2819,-0.2814,-0.2814,-0.2825,-0.2818,-0.2777,-0.2771,-0.2765,-0.2763,-0.2825,-0.2825,-0.2862,-0.2863,-0.2863]},{"header":{"parameterUnit":"m.s-1","parameterCategory":1,"la1":30.2991,"la2":30.254,"lo1":-89.0895,"lo2":-89.0444,"dy":0.0017,"dx":0.0017,"nx":28,"ny":28,"refTime":"2024-04-23T03:00:00:Z","depth":0,"parameterNumber":3,"parameterNumberName":"V-component_of_WINDS"},"data":[0,0,0,0,0,0,0,0,0,0,0,0,0,0,0,0,0,0,0,0,0,0,0,0,0,0,0,0,0,0,0,0,0,0,0,0,0,0,0,0,0,0,0,0,0,0,0,0,0,0,0,0,0,0,0,0,0,0,4.0988,4.0988,0,4.0997,4.0997,4.0997,4.0941,4.0939,4.0937,4.0936,4.0944,4.0946,4.0947,0,0,0,0,0,0,0,0,0,0,0,0,0,4.0921,4.0923,4.0988,4.0988,4.0988,4.0997,4.0997,4.0997,4.0941,4.0939,4.0937,4.0935,4.0943,4.0945,4.0947,0,0,0,0,0,0,0,0,0,0,0,0,0,4.0942,4.0923,4.0988,4.0961,4.0959,4.0997,4.0997,4.0997,4.0941,4.0939,4.0937,4.0934,4.0943,4.0945,4.0948,4.1011,0,0,4.0955,4.0957,0,0,0,0,0,0,0,0,4.0941,4.0945,4.0965,4.0963,4.0961,4.0965,4.0976,4.1002,4.0942,4.0948,4.0936,4.0933,4.0953,4.0954,4.0961,4.1012,4.1012,4.0956,4.0957,4.0958,4.0959,0,0,0,0,0,0,0,4.094,4.0944,4.0992,4.0966,4.0963,4.0948,4.0949,4.0981,4.0964,4.0947,4.0943,4.0945,4.0951,4.0959,4.0961,4.1012,4.0956,4.0958,4.0959,4.096,4.1112,4.1114,0,0,0,0,0,0,4.0942,4.0943,4.0991,4.0992,4.0945,4.0952,4.0952,4.0966,4.0963,4.096,4.0947,4.0942,4.0956,4.0958,4.0961,4.1033,4.0958,4.0961,4.0962,4.111,4.1113,4.1115,0,0,0,0,0,0,4.0941,4.0947,4.0991,4.0966,4.0971,4.0955,4.0972,4.0968,4.0975,4.0963,4.096,4.0958,4.0954,4.0958,4.0999,4.1033,4.0962,4.0964,4.1107,4.1111,4.1114,4.1179,0,0,0,0,0,0,4.0939,4.0947,4.0971,4.0967,4.0972,4.1029,4.0974,4.097,4.098,4.0974,4.0973,4.097,4.0952,4.0995,4.1001,4.1035,4.0966,4.1103,4.1108,4.1113,4.1174,4.1184,4.1194,0,0,0,0,0,4.0937,4.099,4.0973,4.0979,4.1003,4.1031,4.1034,4.1013,4.0983,4.1007,4.0999,4.097,4.1028,4.1,4.1006,4.1041,4.1101,4.1107,4.1112,4.1169,4.1182,4.1193,0,0,0,0,0,0,4.0998,4.0989,4.097,4.1023,4.1028,4.1022,4.1051,4.1028,4.1041,4.1035,4.1008,4.1008,4.1053,4.1052,4.102,4.1101,4.1059,4.1067,4.11,4.1113,4.1123,4.1121,4.0968,0,0,0,0,0,4.1018,4.1042,4.1032,4.108,4.1084,4.1067,4.1079,4.1062,4.1066,4.1068,4.1063,4.1068,4.1087,4.11,4.1117,4.1174,4.1171,4.1201,4.1211,4.1219,4.1225,4.1252,4.1265,4.1134,4.1134,4.1134,0,0,4.1059,4.1056,4.1073,4.1092,4.1094,4.1119,4.1069,4.1098,4.1116,4.1072,4.111,4.1107,4.111,4.1159,4.118,4.1158,4.1261,4.1226,4.1233,4.1234,4.1259,4.1272,4.1283,4.1138,4.1137,4.1136,0,0,4.1145,4.1147,4.1185,4.1188,4.1192,4.118,4.119,4.1186,4.1182,4.122,4.1187,4.1208,4.1242,4.1245,4.1251,4.1338,4.1311,4.1344,4.1396,4.1423,4.1433,4.1442,4.1471,4.1481,4.135,4.1351,4.1351,0,4.1195,4.1231,4.1208,4.1239,4.1247,4.1209,4.1247,4.1251,4.126,4.1266,4.1243,4.1283,4.1283,4.1331,4.1351,4.1359,4.1367,4.1343,4.1434,4.1442,4.145,4.1477,4.1488,4.1354,4.1354,4.1354,4.1353,0,4.1291,4.1317,4.1348,4.1357,4.1369,4.1403,4.1384,4.1399,4.1381,4.1372,4.141,4.1408,4.1423,4.1434,4.1417,4.1479,4.1465,4.1438,4.1395,4.1467,4.1491,4.1502,4.136,4.1358,4.1357,4.1356,0,0,4.1416,4.1411,4.1423,4.1425,4.1426,4.1445,4.1477,4.1491,4.1504,4.1511,4.1536,4.1566,4.154,4.1547,4.153,4.1554,4.162,4.1524,4.1523,4.154,4.1685,4.1704,4.1716,4.1603,4.1605,4.1607,4.1684,0,4.1499,4.1553,4.1532,4.1587,4.1609,4.1573,4.16,4.1603,4.1595,4.1612,4.1604,4.1624,4.159,4.1594,4.1616,4.1607,4.1648,4.1602,4.1624,4.1626,4.1622,4.173,4.175,4.1823,4.1694,4.1695,4.1697,0,4.1602,4.1613,4.167,4.1664,4.1673,4.1698,4.1709,4.1726,4.1728,4.1721,4.1728,4.1706,4.1735,4.1694,4.1734,4.1703,4.1711,4.1708,4.171,4.171,4.1664,4.173,4.1846,4.1856,4.1712,4.1711,4.171,0,4.1684,4.1713,4.175,4.1754,4.175,4.1768,4.1767,4.1766,4.1776,4.1785,4.1791,4.1804,4.1811,4.1822,4.1803,4.1775,4.1845,4.1802,4.1838,4.1838,4.1852,4.1851,4.1969,4.1862,4.1862,4.1861,4.1861,0,4.1777,4.1813,4.1787,4.1809,4.1848,4.1824,4.1863,4.1858,4.1857,4.1878,4.1848,4.1868,4.1843,4.186,4.1846,4.188,4.1884,4.1877,4.1873,4.1879,4.1879,4.1882,4.1876,4.1864,4.1864,4.1863,4.1863,0,4.1875,4.1859,4.1897,4.1889,4.1888,4.1916,4.1909,4.193,4.1919,4.1945,4.195,4.1934,4.1953,4.1936,4.1954,4.1944,4.1988,4.1978,4.1987,4.1984,4.2019,4.2015,4.2141,4.2155,4.2041,4.2042,4.2043,0,4.1934,4.1961,4.1955,4.1966,4.1967,4.1986,4.1995,4.1972,4.1983,4.1987,4.2006,4.2022,4.2033,4.2064,4.2054,4.2067,4.2055,4.2098,4.2057,4.2061,4.2053,4.2051,4.2052,4.2106,4.2108,4.2109,4.211,0,4.204,4.2031,4.2045,4.2056,4.2067,4.2075,4.2081,4.2092,4.2068,4.2082,4.21,4.2109,4.2126,4.2142,4.2151,4.215,4.2125,4.2123,4.2131,4.2137,4.214,4.2136,4.2008,4.212,4.2119,4.2118,4.2117,4.2117,4.2119,4.214,4.2138,4.2155,4.2156,4.2162,4.2179,4.2171,4.2186,4.2198,4.2184,4.2206,4.2206,4.2216,4.2217,4.2234,4.2215,4.2228,4.2231,4.2234,4.2238,4.214,4.2236,4.2236,4.2235,4.2235,4.2235,0,4.2221,4.2218,4.2234,4.2241,4.2254,4.223,4.2235,4.2246,4.2266,4.2268,4.2279,4.2299,4.2314,4.2305,4.2317,4.2332,4.2321,4.2336,4.2333,4.2333,4.2255,4.2245,4.2344,4.2344,4.2344,4.2344,4.2344,4.2344,4.2276,4.2309,4.2299,4.2332,4.2329,4.2349,4.2353,4.2358,4.2359,4.2383,4.2394,4.2388,4.2385,4.2397,4.2409,4.2406,4.2411,4.2429,4.2422,4.2349,4.2338,4.2328,4.2319,4.2431,4.2431,4.2498,4.2499,4.2499]}]]